Location: Unspecified
(0.0000°N, 0.0000°E)
Time: 04:00:57
(UTC+00:00)

Vanguard 1 Rocket - All Passes

Search period start: 18 December 2014 00:00
Search period end: 28 December 2014 00:00
Orbit: 655 x 4225 km, 34.3° (Epoch: 13 December)

Date Brightness Start Highest point End Pass type
(mag) Time Alt. Az. Time Alt. Az. Time Alt. Az.
18 Dec - 01:17:35 10° SW 01:32:10 18° S 01:43:25 10° SSE visible
18 Dec - 03:56:18 10° SSW 04:08:35 24° SSE 04:16:20 10° ESE visible
18 Dec - 06:27:04 10° SW 06:38:00 69° SSE 06:43:48 10° ENE daylight
18 Dec - 09:00:00 10° WNW 09:02:48 13° NW 09:05:12 10° NNW daylight
18 Dec - 16:22:12 10° NNW 16:31:35 32° NE 16:47:31 10° E daylight
18 Dec - 18:45:51 10° NW 19:00:30 88° SW 19:26:09 10° SE visible
18 Dec - 21:15:32 10° W 21:34:43 41° SSW 21:58:34 10° SE visible
18 Dec - 23:56:53 10° SW 00:14:34 21° SSW 00:29:45 10° SSE visible
19 Dec - 02:40:39 10° SSW 02:54:07 20° S 03:03:21 10° SE visible
19 Dec - 05:13:24 10° SW 05:26:19 43° SSE 05:33:15 10° E visible
19 Dec - 07:44:52 10° WSW 07:52:30 37° NW 07:57:17 10° NNE daylight
19 Dec - 15:14:17 10° N 15:19:43 16° NE 15:27:06 10° ENE daylight
19 Dec - 17:35:16 10° NW 17:47:18 66° NE 18:09:59 10° ESE daylight
19 Dec - 20:01:56 10° WNW 20:18:55 55° SSW 20:44:24 10° SE visible
19 Dec - 22:37:35 10° WSW 22:56:41 27° SSW 23:15:59 10° SSE visible
20 Dec - 01:22:53 10° SW 01:38:04 19° S 01:49:26 10° SE visible
20 Dec - 03:59:08 10° SW 04:13:31 31° SSE 04:21:50 10° E visible
20 Dec - 06:30:42 10° SW 06:42:01 81° NW 06:47:56 10° NE daylight
20 Dec - 16:25:34 10° NNW 16:35:09 41° NE 16:52:35 10° ESE daylight
20 Dec - 18:49:56 10° WNW 19:04:15 73° SW 19:29:29 10° SE visible
20 Dec - 21:20:57 10° W 21:39:25 35° SSW 22:01:59 10° SE visible
21 Dec - 00:03:22 10° SW 00:20:32 20° S 00:34:58 10° SE visible
21 Dec - 02:43:55 10° SSW 02:59:26 25° SSE 03:09:20 10° ESE visible
21 Dec - 05:16:32 10° SW 05:30:40 60° SSE 05:37:49 10° ENE visible
21 Dec - 07:49:45 10° W 07:56:12 24° NW 08:00:37 10° N daylight
21 Dec - 15:16:59 10° N 15:23:37 21° NE 15:33:43 10° E daylight
21 Dec - 17:39:04 10° NW 17:50:51 81° NE 18:13:45 10° SE daylight
21 Dec - 20:06:43 10° W 20:23:13 45° SSW 20:47:34 10° SE visible
21 Dec - 22:44:04 10° WSW 23:02:18 24° SSW 23:20:20 10° SE visible
22 Dec - 01:27:18 10° SW 01:43:49 22° S 01:55:37 10° SE visible
22 Dec - 04:02:03 10° SW 04:18:12 41° SSE 04:26:53 10° E visible
22 Dec - 06:34:40 10° WSW 06:45:49 56° NW 06:51:48 10° NE daylight
22 Dec - 16:29:07 10° NNW 16:38:40 53° NE 16:57:05 10° ESE daylight
22 Dec - 18:54:15 10° WNW 19:08:15 60° SSW 19:32:40 10° SE visible
22 Dec - 21:26:46 10° WSW 21:44:30 29° SSW 22:05:38 10° SE visible
23 Dec - 00:09:12 10° SW 00:26:34 21° S 00:40:47 10° SE visible
23 Dec - 02:46:59 10° SW 03:04:29 31° SSE 03:14:56 10° ESE visible
23 Dec - 05:19:54 10° SW 05:34:47 82° SE 05:42:05 10° ENE visible
23 Dec - 07:55:26 10° W 07:59:56 16° NW 08:03:24 10° N daylight
23 Dec - 15:20:04 10° NNW 15:27:18 29° NE 15:39:25 10° E daylight
23 Dec - 17:43:03 10° WNW 17:54:35 82° SW 18:17:13 10° SE daylight
23 Dec - 20:11:51 10° W 20:27:51 37° SSW 20:50:48 10° SE visible
23 Dec - 22:50:31 10° SW 23:08:15 22° S 23:25:17 10° SE visible
24 Dec - 01:31:06 10° SW 01:49:18 26° SSE 02:01:41 10° ESE visible
24 Dec - 04:05:04 10° SW 04:22:39 55° SSE 04:31:34 10° ENE visible
24 Dec - 06:39:03 10° WSW 06:49:29 38° NW 06:55:25 10° NNE daylight
24 Dec - 14:13:19 10° NNE 14:16:09 12° NE 14:19:31 10° ENE daylight
24 Dec - 16:32:49 10° NW 16:42:13 68° NE 17:01:09 10° ESE daylight
24 Dec - 18:58:52 10° W 19:12:31 49° SSW 19:35:46 10° SE visible
24 Dec - 21:32:56 10° WSW 21:49:59 25° SSW 22:09:41 10° SE visible
25 Dec - 00:14:13 10° SW 00:32:30 23° S 00:46:56 10° SE visible
25 Dec - 02:49:59 10° SW 03:09:16 40° SSE 03:20:07 10° E visible
25 Dec - 05:23:33 10° WSW 05:38:39 74° NW 05:46:06 10° NE visible
25 Dec - 15:23:25 10° NNW 15:30:52 39° NE 15:44:26 10° ESE daylight
25 Dec - 17:47:16 10° WNW 17:58:33 66° SSW 18:20:27 10° SE visible
25 Dec - 20:17:23 10° WSW 20:32:48 31° SSW 20:54:12 10° SE visible
25 Dec - 22:56:36 10° SW 23:14:20 22° S 23:30:54 10° SE visible
26 Dec - 01:34:30 10° SW 01:54:30 31° SSE 02:07:25 10° ESE visible
26 Dec - 04:08:14 10° SW 04:26:50 72° SE 04:35:58 10° ENE visible
26 Dec - 06:43:56 10° W 06:53:05 27° NW 06:58:46 10° NNE daylight
26 Dec - 14:15:17 10° N 14:20:00 18° NE 14:26:38 10° E daylight
26 Dec - 16:36:42 10° NW 16:45:54 86° NE 17:04:51 10° SE daylight
26 Dec - 19:03:48 10° W 19:17:04 39° SSW 19:38:50 10° SE visible
26 Dec - 21:39:15 10° SW 21:55:48 23° S 22:14:18 10° SE visible
27 Dec - 00:18:31 10° SW 00:38:11 26° SSE 00:53:07 10° ESE visible
27 Dec - 02:52:58 10° SW 03:13:47 51° SSE 03:24:57 10° ENE visible
27 Dec - 05:27:31 10° WSW 05:42:20 55° NW 05:49:53 10° NE visible
27 Dec - 15:26:58 10° NNW 15:34:25 52° NE 15:48:54 10° ESE daylight
27 Dec - 17:51:44 10° WNW 18:02:46 52° SSW 18:23:32 10° SE visible
27 Dec - 20:23:17 10° WSW 20:38:07 26° SSW 20:57:54 10° SE visible
27 Dec - 23:02:02 10° SW 23:20:24 23° S 23:37:01 10° SE visible
